Livingston, MT

8:49 AM MDT on May 23, 2017 (GMT -0600)
Mission

Weather History for KLVM - March, 2012

Change the Weather History Date:

Thursday, March 1, 2012

  Actual Average Record
Temperature  
Mean Temperature 28 °F 32 °F  
Max Temperature 35 °F 44 °F 64 °F (1992)
Min Temperature 21 °F 20 °F -14 °F (2014)
Degree Days  
Heating Degree Days 37 33  
Month to date heating degree days 33  
Since 1 July heating degree days 5381  
Cooling Degree Days 0 0  
Month to date cooling degree days 0  
Year to date cooling degree days 0  
Moisture  
Dew Point 9 °F    
Average Humidity 48    
Maximum Humidity 63    
Minimum Humidity 34    
Precipitation  
Precipitation 0.00 in 0.02 in 0.52 in (1979)
Month to date precipitation 0.02  
Year to date precipitation 1.01  
Sea Level Pressure  
Sea Level Pressure 29.80 in    
Wind  
Wind Speed 18 mph (WSW)    
Max Wind Speed 29 mph    
Max Gust Speed 36 mph    
Visibility 10 miles    
Events      
T = Trace of Precipitation, MM = Missing Value Source: NWS Daily Summary

Daily Weather History Graph

Daily Weather History Graph

Search for Another Location

Airport or City:

Trip Planner

Search our weather history database for the weather conditions in past years. The results will help you decide how hot, cold, wet, or windy it might be!

Date:

Astronomy

Mar. 01, 2012 Rise Set
Actual Time 6:59 AM MST 6:09 PM MST
Civil Twilight 6:29 AM MST 6:39 PM MST
Nautical Twilight 5:55 AM MST 7:13 PM MST
Astronomical Twilight 5:20 AM MST 7:48 PM MST
Moon 11:17 AM MST (3/1) 2:15 AM MST (3/1)
Length of Visible Light 12h 09m
Length of Day
11h 10m
First Quarter, 57% of the Moon is Illuminated
Mar 1
First Quarter
Mar 8
Full
Mar 14
Last Quarter
Mar 22
New
Mar 30
First Quarter

Hourly Weather History & Observations

Time (MST) Temp. Windchill Dew Point Humidity Pressure Visibility Wind Dir Wind Speed Gust Speed Precip Events Conditions
12:53 AM 26.1 °F 11.0 °F 10.0 °F 51% 29.73 in 10.0 mi SW 24.2 mph 29.9 mph N/A   Clear
1:53 AM 26.1 °F 10.7 °F 8.1 °F 47% 29.73 in 10.0 mi SW 25.3 mph 34.5 mph N/A   Clear
2:53 AM 26.6 °F 11.4 °F 6.8 °F 43% 29.68 in 10.0 mi SW 25.3 mph 32.2 mph N/A   Clear
3:53 AM 24.1 °F 11.5 °F 5.0 °F 44% 29.76 in 10.0 mi SW 15.0 mph 26.5 mph N/A   Clear
4:53 AM 24.1 °F 11.5 °F 3.9 °F 42% 29.79 in 10.0 mi West 15.0 mph 23.0 mph N/A   Partly Cloudy
5:53 AM 21.9 °F 7.8 °F 5.0 °F 48% 29.79 in 10.0 mi West 17.3 mph 24.2 mph N/A   Clear
6:53 AM 24.1 °F 7.1 °F 3.9 °F 42% 29.77 in 10.0 mi SW 28.8 mph 35.7 mph N/A   Clear
7:53 AM 24.1 °F 10.6 °F 5.0 °F 44% 29.82 in 10.0 mi West 17.3 mph 26.5 mph N/A   Clear
8:53 AM 26.1 °F 12.0 °F 6.1 °F 43% 29.79 in 10.0 mi SW 20.7 mph 31.1 mph N/A   Clear
9:53 AM 30.0 °F 21.1 °F 6.1 °F 36% 29.78 in 10.0 mi SW 10.4 mph 18.4 mph N/A   Clear
10:26 AM 30.2 °F 18.1 °F 8.6 °F 40% 29.67 in 10.0 mi West 18.4 mph 24.2 mph N/A   Clear
10:53 AM 34.0 °F 23.0 °F 10.0 °F 37% 29.74 in 10.0 mi WSW 18.4 mph 25.3 mph N/A   Clear
11:53 AM 32.0 °F 20.8 °F 7.0 °F 35% 29.75 in 10.0 mi WSW 17.3 mph - N/A   Clear
12:53 PM 35.1 °F 23.8 °F 9.0 °F 34% 29.73 in 10.0 mi SW 20.7 mph 26.5 mph N/A   Partly Cloudy
1:53 PM 35.6 °F 27.5 °F 12.2 °F 38% 29.66 in 10.0 mi West 11.5 mph 21.9 mph N/A   Partly Cloudy
2:53 PM 32.0 °F 21.2 °F 10.9 °F 42% 29.77 in 10.0 mi WSW 16.1 mph - N/A   Overcast
3:53 PM 30.9 °F 22.8 °F 12.0 °F 46% 29.80 in 10.0 mi West 9.2 mph - N/A   Overcast
4:53 PM 28.9 °F 21.1 °F 15.1 °F 56% 29.83 in 10.0 mi NW 8.1 mph - N/A   Mostly Cloudy
5:53 PM 26.1 °F 19.4 °F 15.1 °F 63% 29.88 in 10.0 mi WSW 5.8 mph - N/A   Partly Cloudy
6:53 PM 26.1 °F 15.6 °F 14.0 °F 60% 29.89 in 10.0 mi WSW 11.5 mph - N/A   Mostly Cloudy
7:53 PM 25.0 °F 13.6 °F 14.0 °F 63% 29.92 in 10.0 mi WSW 12.7 mph - N/A   Clear
8:53 PM 25.0 °F 15.5 °F 12.9 °F 60% 29.93 in 10.0 mi West 9.2 mph - N/A   Mostly Cloudy
9:53 PM 25.0 °F 15.5 °F 12.0 °F 58% 29.96 in 10.0 mi WNW 9.2 mph - N/A   Mostly Cloudy
10:53 PM 25.0 °F 14.8 °F 12.0 °F 58% 29.96 in 10.0 mi WSW 10.4 mph - N/A   Overcast
11:53 PM 25.0 °F 13.6 °F 12.0 °F 58% 29.99 in 10.0 mi WSW 12.7 mph - N/A   Overcast